IW8RUI-5 Weather Reports


Display with metric or nautical units.
time (UTC)temp
F
wind
direction
speed
MPH
gust
MPH
rain 1hr
in
rain 24hr
in
rain mn
in
humidity
%
barometer
mb
20260904205929 62 167 0.0 0.0 0.00 0.00 0.00 10 1015.0
20260904205432 62 142 0.0 0.0 0.00 0.00 0.00 10 1015.0
20260904204929 62 167 0.0 0.0 0.00 0.00 0.00 10 1015.0
20260904204429 62 160 0.0 0.0 0.00 0.00 0.00 10 1015.0
20260904203930 62 163 0.0 0.0 0.00 0.00 0.00 10 1015.0
20260904203433 62 146 0.0 0.0 0.00 0.00 0.00 10 1015.0
20260904202930 62 155 0.0 0.0 0.00 0.00 0.00 10 1015.0
20260904202432 62 169 0.0 0.0 0.00 0.00 0.00 10 1015.0
20260904201931 62 159 0.0 0.0 0.00 0.00 0.00 10 1015.0
20260904201430 62 153 0.0 0.0 0.00 0.00 0.00 10 1015.0
20260904200931 62 167 0.0 0.0 0.00 0.00 0.00 10 1015.0
20260904200430 62 161 0.0 0.0 0.00 0.00 0.00 10 1015.0
20260904195929 62 143 0.0 0.0 0.00 0.00 0.00 10 1015.0
20260904195431 62 167 0.0 0.0 0.00 0.00 0.00 10 1015.0
20260904194932 62 169 0.0 0.0 0.00 0.00 0.00 10 1015.0
20260904193429 62 144 0.0 0.0 0.00 0.00 0.00 10 1015.0
20260904192930 62 169 0.0 0.0 0.00 0.00 0.00 10 1015.0
20260904192433 62 168 0.0 0.0 0.00 0.00 0.00 10 1015.0
20260904191930 62 142 0.0 0.0 0.00 0.00 0.00 10 1015.0
20260904191427 63 160 0.0 0.0 0.00 0.00 0.00 10 1015.0
20260904190927 63 156 0.0 0.0 0.00 0.00 0.00 10 1015.0
20260904190427 63 159 0.0 0.0 0.00 0.00 0.00 10 1015.0
20260904185928 63 161 0.0 0.0 0.00 0.00 0.00 10 1015.0
20260904185434 63 158 0.0 0.0 0.00 0.00 0.00 10 1015.0
20260904184928 64 143 0.0 0.0 0.00 0.00 0.00 10 1015.0
20260904184430 64 168 0.0 0.0 0.00 0.00 0.00 10 1015.0
20260904183930 64 154 0.0 0.0 0.00 0.00 0.00 10 1014.0
20260904183430 64 168 0.0 0.0 0.00 0.00 0.00 10 1014.0
20260904182932 64 169 0.0 0.0 0.00 0.00 0.00 10 1014.0
20260904182434 65 145 0.0 0.0 0.00 0.00 0.00 10 1014.0
20260904181427 65 168 0.0 0.0 0.00 0.00 0.00 10 1014.0
20260904175927 66 142 0.0 0.0 0.00 0.00 0.00 10 1014.0
20260904174427 66 158 0.0 0.0 0.00 0.00 0.00 10 1014.0
20260904173930 67 153 0.0 0.0 0.00 0.00 0.00 10 1014.0
20260904173430 67 144 0.0 0.0 0.00 0.00 0.00 10 1014.0
20260904172927 67 163 0.0 0.0 0.00 0.00 0.00 10 1014.0
20260904172434 68 153 0.0 0.0 0.00 0.00 0.00 10 1014.0
20260904171930 68 143 0.0 0.0 0.00 0.00 0.00 10 1014.0
20260904171427 69 142 0.0 0.0 0.00 0.00 0.00 10 1014.0
20260904170427 70 155 0.0 0.0 0.00 0.00 0.00 10 1014.0
20260904165927 71 157 0.0 0.0 0.00 0.00 0.00 10 1014.0
20260904164927 72 163 0.0 0.0 0.00 0.00 0.00 10 1014.0
20260904164427 72 150 0.0 0.0 0.00 0.00 0.00 10 1014.0
20260904163433 72 143 0.0 0.0 0.00 0.00 0.00 10 1014.0
20260904162927 73 156 0.0 0.0 0.00 0.00 0.00 10 1014.0
20260904162427 73 166 0.0 0.0 0.00 0.00 0.00 10 1014.0
20260904161427 75 169 0.0 0.0 0.00 0.00 0.00 10 1014.0
20260904160427 75 158 0.0 0.0 0.00 0.00 0.00 10 1014.0
20260904155927 75 169 0.0 0.0 0.00 0.00 0.00 10 1014.0
20260904154427 74 145 0.0 0.0 0.00 0.00 0.00 10 1013.0
20260904152927 74 168 0.0 0.0 0.00 0.00 0.00 10 1013.0
20260904144430 71 167 0.0 0.0 0.00 0.00 0.00 10 1013.0
20260904144006 72 144 0.0 0.0 0.00 0.00 0.00 10 1013.0
20260904143930 72 144 0.0 0.0 0.00 0.00 0.00 10 1013.0
20260904142930 71 145 0.0 0.0 0.00 0.00 0.00 10 1013.0
20260904140927 71 169 0.0 0.0 0.00 0.00 0.00 10 1013.0
20260904135930 71 169 0.0 0.0 0.00 0.00 0.00 10 1013.0
20260904134930 71 170 0.0 0.0 0.00 0.00 0.00 10 1013.0
20260904134427 71 164 0.0 0.0 0.00 0.00 0.00 10 1013.0
20260904132927 69 169 0.0 0.0 0.00 0.00 0.00 32 1013.0
20260904132430 69 149 0.0 0.0 0.00 0.00 0.00 34 1013.0
20260904131927 69 170 0.0 0.0 0.00 0.00 0.00 34 1013.0
20260904131427 69 149 0.0 0.0 0.00 0.00 0.00 34 1013.0
20260904130927 68 149 0.0 0.0 0.00 0.00 0.00 34 1013.0
20260904125430 68 168 0.0 0.0 0.00 0.00 0.00 37 1014.0
20260904124930 68 149 0.0 0.0 0.00 0.00 0.00 39 1014.0
20260904124431 68 143 0.0 0.0 0.00 0.00 0.00 40 1014.0
20260904123930 68 154 0.0 0.0 0.00 0.00 0.00 43 1014.0
20260904123430 67 153 0.0 0.0 0.00 0.00 0.00 43 1014.0
20260904122930 67 142 0.0 0.0 0.00 0.00 0.00 43 1014.0
20260904122430 67 145 0.0 0.0 0.00 0.00 0.00 42 1014.0
20260904121930 67 147 0.0 0.0 0.00 0.00 0.00 43 1014.0
20260904121426 67 142 0.0 0.0 0.00 0.00 0.00 43 1014.0
20260904120929 67 169 0.0 0.0 0.00 0.00 0.00 44 1014.0
20260904120430 67 170 0.0 0.0 0.00 0.00 0.00 42 1014.0
20260904115930 67 149 0.0 0.0 0.00 0.00 0.00 41 1014.0
20260904115433 67 170 0.0 0.0 0.00 0.00 0.00 41 1014.0
20260904114929 67 169 0.0 0.0 0.00 0.00 0.00 41 1014.0
20260904113935 67 150 0.0 0.0 0.00 0.00 0.00 38 1013.0
20260904113430 68 142 0.0 0.0 0.00 0.00 0.00 33 1013.0
20260904112931 68 163 0.0 0.0 0.00 0.00 0.00 33 1013.0
20260904112426 68 153 0.0 0.0 0.00 0.00 0.00 32 1013.0
20260904111930 68 150 0.0 0.0 0.00 0.00 0.00 26 1013.0
20260904111430 69 143 0.0 0.0 0.00 0.00 0.00 23 1013.0
20260904110926 69 171 0.0 0.0 0.00 0.00 0.00 10 1013.0
20260904110426 69 145 0.0 0.0 0.00 0.00 0.00 10 1013.0
20260904105930 70 154 0.0 0.0 0.00 0.00 0.00 10 1013.0
20260904105430 70 160 0.0 0.0 0.00 0.00 0.00 10 1013.0
20260904104926 71 160 0.0 0.0 0.00 0.00 0.00 10 1013.0
20260904104430 71 159 0.0 0.0 0.00 0.00 0.00 10 1013.0
20260904103930 72 168 0.0 0.0 0.00 0.00 0.00 10 1013.0
20260904103431 73 148 0.0 0.0 0.00 0.00 0.00 10 1013.0
20260904102930 73 146 0.0 0.0 0.00 0.00 0.00 10 1013.0
20260904102434 73 150 0.0 0.0 0.00 0.00 0.00 10 1013.0
20260904101930 73 143 0.0 0.0 0.00 0.00 0.00 10 1013.0
20260904101429 73 168 0.0 0.0 0.00 0.00 0.00 10 1013.0
20260904100931 73 158 0.0 0.0 0.00 0.00 0.00 10 1013.0
20260904100430 73 149 0.0 0.0 0.00 0.00 0.00 10 1013.0
20260904095926 72 152 0.0 0.0 0.00 0.00 0.00 10 1013.0
20260904095426 72 154 0.0 0.0 0.00 0.00 0.00 10 1013.0
20260904094931 71 142 0.0 0.0 0.00 0.00 0.00 10 1013.0
20260904094430 71 162 0.0 0.0 0.00 0.00 0.00 10 1013.0
20260904093926 71 147 0.0 0.0 0.00 0.00 0.00 10 1013.0
20260904093426 71 168 0.0 0.0 0.00 0.00 0.00 10 1013.0
20260904092926 71 157 0.0 0.0 0.00 0.00 0.00 10 1013.0
20260904092426 71 170 0.0 0.0 0.00 0.00 0.00 10 1013.0
20260904091926 71 167 0.0 0.0 0.00 0.00 0.00 10 1013.0
20260904091430 71 161 0.0 0.0 0.00 0.00 0.00 10 1013.0
20260904090930 71 153 0.0 0.0 0.00 0.00 0.00 10 1013.0
20260904090426 71 161 0.0 0.0 0.00 0.00 0.00 10 1013.0
20260904085930 71 154 0.0 0.0 0.00 0.00 0.00 10 1013.0
20260904085430 70 146 0.0 0.0 0.00 0.00 0.00 10 1013.0
20260904084930 70 161 0.0 0.0 0.00 0.00 0.00 10 1013.0
20260904084429 70 153 0.0 0.0 0.00 0.00 0.00 10 1013.0
20260904082926 69 153 0.0 0.0 0.00 0.00 0.00 10 1013.0
20260904082430 69 170 0.0 0.0 0.00 0.00 0.00 10 1013.0
20260904081426 68 159 0.0 0.0 0.00 0.00 0.00 10 1013.0
20260904080426 68 156 0.0 0.0 0.00 0.00 0.00 10 1013.0
20260904075926 67 169 0.0 0.0 0.00 0.00 0.00 10 1013.0
20260904075426 67 151 0.0 0.0 0.00 0.00 0.00 10 1013.0
20260904074926 66 149 0.0 0.0 0.00 0.00 0.00 10 1013.0
20260904074430 66 143 0.0 0.0 0.00 0.00 0.00 10 1013.0
20260904073930 66 167 0.0 0.0 0.00 0.00 0.00 10 1013.0
20260904073426 66 169 0.0 0.0 0.00 0.00 0.00 10 1013.0
20260904072930 65 149 0.0 0.0 0.00 0.00 0.00 10 1013.0
20260904072430 65 143 0.0 0.0 0.00 0.00 0.00 10 1013.0
20260904071934 65 169 0.0 0.0 0.00 0.00 0.00 10 1013.0
20260904071430 64 144 0.0 0.0 0.00 0.00 0.00 24 1013.0
20260904070926 64 163 0.0 0.0 0.00 0.00 0.00 27 1013.0
20260904065926 64 154 0.0 0.0 0.00 0.00 0.00 37 1013.0
20260904065431 63 148 0.0 0.0 0.00 0.00 0.00 39 1013.0
20260904064930 63 159 0.0 0.0 0.00 0.00 0.00 41 1013.0
20260904064430 63 152 0.0 0.0 0.00 0.00 0.00 41 1013.0
20260904063926 63 145 0.0 0.0 0.00 0.00 0.00 42 1013.0
20260904063426 63 143 0.0 0.0 0.00 0.00 0.00 42 1013.0
20260904062930 63 167 0.0 0.0 0.00 0.00 0.00 43 1013.0
20260904062430 63 157 0.0 0.0 0.00 0.00 0.00 41 1013.0
20260904061930 63 158 0.0 0.0 0.00 0.00 0.00 41 1013.0
20260904061430 63 164 0.0 0.0 0.00 0.00 0.00 41 1013.0
20260904060930 63 169 0.0 0.0 0.00 0.00 0.00 39 1013.0
20260904060430 62 143 0.0 0.0 0.00 0.00 0.00 39 1013.0
20260904055930 62 169 0.0 0.0 0.00 0.00 0.00 39 1013.0
20260904055429 62 146 0.0 0.0 0.00 0.00 0.00 39 1013.0
20260904054929 62 156 0.0 0.0 0.00 0.00 0.00 39 1013.0
20260904054430 62 154 0.0 0.0 0.00 0.00 0.00 39 1013.0
20260904053928 62 168 0.0 0.0 0.00 0.00 0.00 39 1013.0
20260904053428 62 160 0.0 0.0 0.00 0.00 0.00 39 1013.0
20260904052429 62 169 0.0 0.0 0.00 0.00 0.00 39 1012.0
20260904051928 62 156 0.0 0.0 0.00 0.00 0.00 39 1012.0
20260904051428 62 164 0.0 0.0 0.00 0.00 0.00 39 1012.0
20260904050928 62 143 0.0 0.0 0.00 0.00 0.00 39 1012.0
20260904050428 62 142 0.0 0.0 0.00 0.00 0.00 40 1012.0
20260904045928 62 169 0.0 0.0 0.00 0.00 0.00 40 1012.0
20260904045428 62 167 0.0 0.0 0.00 0.00 0.00 39 1012.0
20260904044928 61 169 0.0 0.0 0.00 0.00 0.00 37 1012.0
20260904044428 61 155 0.0 0.0 0.00 0.00 0.00 35 1012.0
20260904043928 61 144 0.0 0.0 0.00 0.00 0.00 36 1012.0
20260904043428 61 144 0.0 0.0 0.00 0.00 0.00 36 1012.0
20260904042928 61 169 0.0 0.0 0.00 0.00 0.00 36 1012.0
20260904042428 61 160 0.0 0.0 0.00 0.00 0.00 36 1012.0
20260904041928 62 164 0.0 0.0 0.00 0.00 0.00 36 1012.0
20260904041428 62 158 0.0 0.0 0.00 0.00 0.00 36 1012.0
20260904040928 62 157 0.0 0.0 0.00 0.00 0.00 35 1012.0
20260904040428 62 169 0.0 0.0 0.00 0.00 0.00 35 1012.0
20260904035928 62 154 0.0 0.0 0.00 0.00 0.00 35 1012.0
20260904035428 62 143 0.0 0.0 0.00 0.00 0.00 35 1012.0
20260904034428 61 164 0.0 0.0 0.00 0.00 0.00 34 1012.0
20260904033928 61 169 0.0 0.0 0.00 0.00 0.00 34 1012.0
20260904033428 61 168 0.0 0.0 0.00 0.00 0.00 34 1012.0
20260904032929 61 148 0.0 0.0 0.00 0.00 0.00 28 1012.0
20260904032428 61 155 0.0 0.0 0.00 0.00 0.00 25 1012.0
20260904031929 61 163 0.0 0.0 0.00 0.00 0.00 24 1012.0
20260904031428 61 164 0.0 0.0 0.00 0.00 0.00 24 1012.0
20260904030928 61 142 0.0 0.0 0.00 0.00 0.00 24 1012.0
20260904030428 61 169 0.0 0.0 0.00 0.00 0.00 25 1012.0
20260904025928 61 160 0.0 0.0 0.00 0.00 0.00 28 1012.0
20260904025428 60 159 0.0 0.0 0.00 0.00 0.00 10 1012.0
20260904024928 60 143 0.0 0.0 0.00 0.00 0.00 10 1012.0
20260904024428 60 167 0.0 0.0 0.00 0.00 0.00 10 1012.0
20260904023928 60 149 0.0 0.0 0.00 0.00 0.00 10 1012.0
20260904023429 60 161 0.0 0.0 0.00 0.00 0.00 10 1012.0
20260904022928 60 158 0.0 0.0 0.00 0.00 0.00 10 1012.0
20260904022429 60 161 0.0 0.0 0.00 0.00 0.00 10 1012.0
20260904021928 60 169 0.0 0.0 0.00 0.00 0.00 10 1012.0
20260904021428 60 157 0.0 0.0 0.00 0.00 0.00 10 1012.0
20260904020929 60 143 0.0 0.0 0.00 0.00 0.00 10 1012.0
20260904020428 60 142 0.0 0.0 0.00 0.00 0.00 10 1012.0
20260904015928 60 161 0.0 0.0 0.00 0.00 0.00 10 1012.0
20260904015428 60 169 0.0 0.0 0.00 0.00 0.00 10 1012.0
20260904014928 60 158 0.0 0.0 0.00 0.00 0.00 10 1012.0
20260904014428 60 151 0.0 0.0 0.00 0.00 0.00 10 1012.0
20260904013928 60 143 0.0 0.0 0.00 0.00 0.00 10 1012.0
20260904013428 60 169 0.0 0.0 0.00 0.00 0.00 10 1012.0
20260904012929 61 167 0.0 0.0 0.00 0.00 0.00 10 1012.0
20260904012428 61 161 0.0 0.0 0.00 0.00 0.00 10 1012.0
20260904011428 61 165 0.0 0.0 0.00 0.00 0.00 10 1012.0
20260904010928 61 156 0.0 0.0 0.00 0.00 0.00 10 1012.0
20260904010428 61 161 0.0 0.0 0.00 0.00 0.00 10 1012.0
20260904005928 61 143 0.0 0.0 0.00 0.00 0.00 10 1012.0
20260904005429 61 146 0.0 0.0 0.00 0.00 0.00 10 1012.0
20260904004929 61 170 0.0 0.0 0.00 0.00 0.00 10 1012.0
20260904004428 62 167 0.0 0.0 0.00 0.00 0.00 10 1012.0
20260904003929 62 153 0.0 0.0 0.00 0.00 0.00 10 1012.0
20260904003429 62 169 0.0 0.0 0.00 0.00 0.00 10 1012.0
20260904002926 62 169 0.0 0.0 0.00 0.00 0.00 10 1012.0
20260904002426 62 154 0.0 0.0 0.00 0.00 0.00 10 1012.0
20260904001928 62 142 0.0 0.0 0.00 0.00 0.00 10 1012.0
20260904001428 62 165 0.0 0.0 0.00 0.00 0.00 10 1012.0
20260904000928 62 148 0.0 0.0 0.00 0.00 0.00 10 1012.0
20260904000426 62 148 0.0 0.0 0.00 0.00 0.00 10 1012.0
20260903235928 62 168 0.0 0.0 0.00 0.00 0.00 10 1012.0
20260903235426 63 149 0.0 0.0 0.00 0.00 0.00 10 1012.0
20260903234926 63 143 0.0 0.0 0.00 0.00 0.00 10 1012.0
20260903234426 63 162 0.0 0.0 0.00 0.00 0.00 10 1012.0
20260903233926 63 143 0.0 0.0 0.00 0.00 0.00 10 1013.0
20260903233426 63 142 0.0 0.0 0.00 0.00 0.00 10 1013.0
20260903232926 63 158 0.0 0.0 0.00 0.00 0.00 10 1013.0
20260903232426 63 143 0.0 0.0 0.00 0.00 0.00 10 1013.0
20260903231926 63 143 0.0 0.0 0.00 0.00 0.00 10 1013.0
20260903231428 63 160 0.0 0.0 0.00 0.00 0.00 10 1013.0
20260903230926 63 161 0.0 0.0 0.00 0.00 0.00 10 1013.0
20260903230429 63 161 0.0 0.0 0.00 0.00 0.00 10 1013.0
20260903225926 63 144 0.0 0.0 0.00 0.00 0.00 10 1013.0
20260903225426 64 146 0.0 0.0 0.00 0.00 0.00 10 1012.0
20260903224926 64 143 0.0 0.0 0.00 0.00 0.00 10 1012.0
20260903224426 63 169 0.0 0.0 0.00 0.00 0.00 10 1012.0
20260903223926 63 153 0.0 0.0 0.00 0.00 0.00 10 1013.0
20260903223428 63 150 0.0 0.0 0.00 0.00 0.00 10 1013.0
20260903222926 63 155 0.0 0.0 0.00 0.00 0.00 10 1013.0
20260903222426 63 151 0.0 0.0 0.00 0.00 0.00 10 1013.0
20260903221926 63 143 0.0 0.0 0.00 0.00 0.00 10 1013.0
20260903221426 62 155 0.0 0.0 0.00 0.00 0.00 10 1013.0
20260903220926 62 146 0.0 0.0 0.00 0.00 0.00 10 1013.0
20260903220426 62 154 0.0 0.0 0.00 0.00 0.00 10 1013.0
20260903215926 62 146 0.0 0.0 0.00 0.00 0.00 10 1013.0
20260903215427 62 168 0.0 0.0 0.00 0.00 0.00 10 1013.0
20260903214926 62 169 0.0 0.0 0.00 0.00 0.00 10 1013.0
20260903214426 62 160 0.0 0.0 0.00 0.00 0.00 10 1013.0
20260903213927 62 151 0.0 0.0 0.00 0.00 0.00 10 1013.0
20260903213426 62 160 0.0 0.0 0.00 0.00 0.00 10 1013.0
20260903212429 62 150 0.0 0.0 0.00 0.00 0.00 10 1013.0
20260903211928 63 168 0.0 0.0 0.00 0.00 0.00 10 1013.0
20260903211428 63 146 0.0 0.0 0.00 0.00 0.00 10 1013.0
20260903210928 63 142 0.0 0.0 0.00 0.00 0.00 10 1012.0